[[{"header":{"parameterUnit":"m.s-1","parameterCategory":1,"la1":30.2991,"la2":30.254,"lo1":-89.0895,"lo2":-89.0444,"dy":0.0017,"dx":0.0017,"nx":28,"ny":28,"refTime":"2024-06-11T21:00:00:Z","depth":0,"parameterNumber":2,"parameterNumberName":"U-component_of_WINDS"},"data":[0,0,0,0,0,0,0,0,0,0,0,0,0,0,0,0,0,0,0,0,0,0,0,0,0,0,0,0,0,0,0,0,0,0,0,0,0,0,0,0,0,0,0,0,0,0,0,0,0,0,0,0,0,0,0,0,0,0,-0.0499,-0.0499,0,-0.0439,-0.0438,-0.0438,-0.0383,-0.0382,-0.0381,-0.0381,-0.0319,-0.0318,-0.0317,0,0,0,0,0,0,0,0,0,0,0,0,0,-0.0569,-0.0568,-0.05,-0.0499,-0.0498,-0.0439,-0.0438,-0.0437,-0.0383,-0.0382,-0.0381,-0.038,-0.0319,-0.0318,-0.0317,0,0,0,0,0,0,0,0,0,0,0,0,0,-0.0527,-0.0568,-0.05,-0.0464,-0.046,-0.0439,-0.0438,-0.0437,-0.0383,-0.0382,-0.0381,-0.038,-0.032,-0.0318,-0.0317,-0.0327,0,0,-0.0312,-0.0311,0,0,0,0,0,0,0,0,-0.0529,-0.0524,-0.047,-0.0466,-0.0462,-0.0417,-0.044,-0.04,-0.0383,-0.0412,-0.0381,-0.038,-0.0352,-0.0348,-0.0339,-0.0324,-0.0321,-0.0312,-0.0311,-0.031,-0.031,0,0,0,0,0,0,0,-0.0532,-0.0526,-0.0475,-0.0469,-0.0464,-0.0451,-0.0444,-0.0432,-0.0389,-0.041,-0.0405,-0.0399,-0.035,-0.0341,-0.0337,-0.032,-0.0312,-0.031,-0.0309,-0.0309,-0.0313,-0.0314,0,0,0,0,0,0,-0.054,-0.0529,-0.0477,-0.0474,-0.0494,-0.045,-0.0442,-0.0433,-0.0388,-0.0381,-0.04,-0.0397,-0.0344,-0.0339,-0.0335,-0.0345,-0.031,-0.0309,-0.0308,-0.0312,-0.0313,-0.0314,0,0,0,0,0,0,-0.0542,-0.0536,-0.048,-0.05,-0.0492,-0.045,-0.044,-0.0432,-0.0422,-0.0381,-0.0373,-0.0398,-0.0343,-0.0337,-0.033,-0.0342,-0.0308,-0.0306,-0.031,-0.0312,-0.0313,-0.0366,0,0,0,0,0,0,-0.0544,-0.0537,-0.054,-0.0501,-0.0491,-0.0476,-0.044,-0.0431,-0.042,-0.0415,-0.0377,-0.037,-0.0341,-0.0332,-0.0328,-0.034,-0.0305,-0.0309,-0.0311,-0.0313,-0.0363,-0.0369,-0.0375,0,0,0,0,0,-0.0547,-0.0557,-0.0541,-0.0535,-0.0494,-0.0477,-0.0471,-0.0438,-0.0421,-0.0424,-0.0398,-0.0371,-0.0341,-0.0332,-0.0327,-0.0338,-0.0308,-0.0311,-0.0313,-0.0361,-0.0368,-0.0375,0,0,0,0,0,0,-0.0599,-0.0551,-0.0533,-0.053,-0.0508,-0.0467,-0.047,-0.0446,-0.0428,-0.0425,-0.0384,-0.0376,-0.0374,-0.0355,-0.0345,-0.0347,-0.0321,-0.0323,-0.0359,-0.0366,-0.0372,-0.0377,-0.0304,0,0,0,0,0,-0.0611,-0.06,-0.0559,-0.0561,-0.055,-0.0513,-0.0503,-0.048,-0.0455,-0.0445,-0.0418,-0.0395,-0.0381,-0.0372,-0.0356,-0.036,-0.0352,-0.0365,-0.0371,-0.0376,-0.0378,-0.0381,-0.0387,-0.0322,-0.0322,-0.0322,0,0,-0.0634,-0.0606,-0.0602,-0.057,-0.055,-0.0541,-0.0505,-0.0496,-0.0489,-0.0444,-0.0436,-0.0415,-0.0387,-0.0386,-0.0384,-0.037,-0.0394,-0.0379,-0.0383,-0.0383,-0.0384,-0.039,-0.0395,-0.0323,-0.0323,-0.0323,0,0,-0.0672,-0.0649,-0.0649,-0.063,-0.06,-0.0575,-0.0575,-0.0538,-0.0523,-0.0514,-0.0481,-0.0472,-0.0447,-0.0429,-0.0417,-0.0449,-0.0425,-0.0445,-0.0476,-0.0479,-0.0484,-0.0489,-0.0502,-0.0507,-0.0447,-0.0447,-0.0447,0,-0.0704,-0.0689,-0.0652,-0.0646,-0.0634,-0.0593,-0.0593,-0.0576,-0.0543,-0.0536,-0.0521,-0.049,-0.0468,-0.0463,-0.0471,-0.0462,-0.0462,-0.045,-0.0486,-0.049,-0.0494,-0.0507,-0.0512,-0.045,-0.045,-0.045,-0.0449,0,-0.0732,-0.0721,-0.0725,-0.0695,-0.0682,-0.068,-0.0644,-0.0636,-0.0613,-0.059,-0.0583,-0.0555,-0.0534,-0.053,-0.0508,-0.0523,-0.0515,-0.0494,-0.0468,-0.0504,-0.0515,-0.0519,-0.0454,-0.0453,-0.0452,-0.0452,0,0,-0.0801,-0.0751,-0.0753,-0.074,-0.0704,-0.0696,-0.0692,-0.0671,-0.0666,-0.0645,-0.0641,-0.0622,-0.0602,-0.0588,-0.0563,-0.0566,-0.0596,-0.0544,-0.0543,-0.0556,-0.0613,-0.0631,-0.0637,-0.0579,-0.058,-0.058,-0.0616,0,-0.0835,-0.0825,-0.0793,-0.0793,-0.0784,-0.0745,-0.0741,-0.072,-0.0698,-0.0688,-0.0663,-0.0652,-0.0625,-0.0617,-0.0617,-0.0592,-0.0607,-0.0589,-0.0577,-0.0577,-0.0587,-0.0643,-0.0662,-0.0697,-0.062,-0.0621,-0.0621,0,-0.0873,-0.0855,-0.0854,-0.0821,-0.0816,-0.0813,-0.0793,-0.0783,-0.0758,-0.0742,-0.0727,-0.07,-0.0694,-0.0669,-0.0662,-0.065,-0.0643,-0.063,-0.0631,-0.063,-0.0603,-0.0646,-0.0707,-0.0714,-0.0628,-0.0627,-0.0627,0,-0.0927,-0.0902,-0.0899,-0.0888,-0.0848,-0.0848,-0.0831,-0.0805,-0.0795,-0.0777,-0.0771,-0.0753,-0.0743,-0.073,-0.0699,-0.0683,-0.0696,-0.0667,-0.0684,-0.0685,-0.069,-0.069,-0.0753,-0.0682,-0.0682,-0.0682,-0.0682,0,-0.0969,-0.0971,-0.0923,-0.0921,-0.0923,-0.0885,-0.0888,-0.0868,-0.0845,-0.084,-0.0804,-0.08,-0.0758,-0.0749,-0.0724,-0.0723,-0.0718,-0.0707,-0.07,-0.0711,-0.0713,-0.0707,-0.0705,-0.0683,-0.0683,-0.0682,-0.0682,0,-0.1029,-0.0997,-0.0992,-0.0955,-0.0946,-0.0949,-0.0917,-0.0915,-0.0891,-0.0885,-0.0881,-0.0844,-0.0832,-0.0799,-0.0778,-0.0761,-0.0768,-0.0755,-0.0777,-0.0774,-0.0793,-0.0793,-0.0856,-0.0864,-0.0786,-0.0787,-0.0787,0,-0.106,-0.106,-0.1024,-0.1018,-0.1003,-0.0993,-0.0983,-0.0947,-0.0938,-0.0911,-0.0912,-0.0897,-0.0883,-0.0866,-0.0838,-0.0822,-0.081,-0.0833,-0.0807,-0.0819,-0.0813,-0.0814,-0.0815,-0.084,-0.0841,-0.0841,-0.0842,0,-0.1117,-0.1101,-0.1089,-0.1071,-0.1061,-0.1045,-0.1027,-0.1024,-0.0983,-0.0976,-0.0963,-0.0953,-0.0932,-0.0918,-0.0899,-0.0882,-0.0856,-0.085,-0.0854,-0.0866,-0.088,-0.0875,-0.0795,-0.0849,-0.0849,-0.0848,-0.0848,-0.0847,-0.1165,-0.1165,-0.1139,-0.1127,-0.111,-0.1094,-0.1091,-0.1067,-0.1056,-0.1037,-0.1015,-0.1006,-0.0982,-0.0953,-0.0938,-0.0931,-0.0917,-0.0921,-0.0923,-0.0925,-0.0931,-0.0879,-0.0927,-0.0926,-0.0926,-0.0926,-0.0926,0,-0.1223,-0.1205,-0.1193,-0.117,-0.1161,-0.1137,-0.1116,-0.111,-0.1102,-0.1082,-0.107,-0.1056,-0.1043,-0.1014,-0.0999,-0.0999,-0.0987,-0.0996,-0.0997,-0.0994,-0.0943,-0.0943,-0.1006,-0.1006,-0.1006,-0.1006,-0.1006,-0.1006,-0.1252,-0.1251,-0.1232,-0.1223,-0.1204,-0.1195,-0.1186,-0.1172,-0.1156,-0.1143,-0.1132,-0.1113,-0.109,-0.1072,-0.106,-0.1052,-0.1049,-0.1063,-0.1051,-0.1005,-0.0997,-0.099,-0.0989,-0.1062,-0.1062,-0.1103,-0.1103,-0.1103]},{"header":{"parameterUnit":"m.s-1","parameterCategory":1,"la1":30.2991,"la2":30.254,"lo1":-89.0895,"lo2":-89.0444,"dy":0.0017,"dx":0.0017,"nx":28,"ny":28,"refTime":"2024-06-11T21:00:00:Z","depth":0,"parameterNumber":3,"parameterNumberName":"V-component_of_WINDS"},"data":[0,0,0,0,0,0,0,0,0,0,0,0,0,0,0,0,0,0,0,0,0,0,0,0,0,0,0,0,0,0,0,0,0,0,0,0,0,0,0,0,0,0,0,0,0,0,0,0,0,0,0,0,0,0,0,0,0,0,1.0846,1.0845,0,1.0724,1.0723,1.0721,1.0642,1.0641,1.0641,1.0641,1.0512,1.0509,1.0506,0,0,0,0,0,0,0,0,0,0,0,0,0,1.101,1.1007,1.0846,1.0845,1.0843,1.0724,1.0722,1.0721,1.0642,1.0641,1.0641,1.064,1.0513,1.051,1.0506,0,0,0,0,0,0,0,0,0,0,0,0,0,1.0918,1.1006,1.0847,1.079,1.0783,1.0725,1.0722,1.072,1.0642,1.0641,1.0641,1.064,1.0514,1.051,1.0506,1.0493,0,0,1.0492,1.049,0,0,0,0,0,0,0,0,1.0924,1.0912,1.08,1.0794,1.0786,1.0698,1.0733,1.0644,1.0642,1.0696,1.0641,1.064,1.0574,1.0565,1.0543,1.0487,1.0481,1.0492,1.0489,1.0487,1.0486,0,0,0,0,0,0,0,1.093,1.0917,1.0798,1.0798,1.079,1.077,1.0756,1.0716,1.064,1.0691,1.0685,1.0672,1.057,1.0548,1.054,1.0479,1.0492,1.0488,1.0485,1.0483,1.0405,1.0405,0,0,0,0,0,0,1.0946,1.0923,1.0802,1.0794,1.0855,1.0767,1.0752,1.0727,1.0641,1.0627,1.0673,1.0669,1.0556,1.0545,1.0535,1.0512,1.0487,1.0483,1.048,1.0404,1.0405,1.0405,0,0,0,0,0,0,1.095,1.0936,1.0807,1.0857,1.0839,1.0765,1.0738,1.0725,1.0702,1.0627,1.0613,1.0663,1.0555,1.0541,1.0504,1.0507,1.0481,1.0477,1.0403,1.0404,1.0405,1.0469,0,0,0,0,0,0,1.0955,1.0938,1.0932,1.0857,1.0837,1.0778,1.0738,1.0723,1.0695,1.0688,1.0614,1.0601,1.0553,1.0511,1.0499,1.05,1.0473,1.0403,1.0404,1.0405,1.0466,1.0472,1.0477,0,0,0,0,0,1.0961,1.0955,1.0932,1.0918,1.0829,1.0779,1.0767,1.0712,1.0696,1.0689,1.0641,1.0604,1.051,1.0508,1.0494,1.0494,1.0402,1.0404,1.0405,1.0464,1.0471,1.0477,0,0,0,0,0,0,1.103,1.0944,1.0918,1.0888,1.0841,1.0765,1.0755,1.0722,1.0678,1.0674,1.0607,1.0591,1.056,1.0524,1.0523,1.0477,1.0451,1.045,1.0501,1.0507,1.0512,1.052,1.047,0,0,0,0,0,1.1043,1.101,1.0936,1.0916,1.0895,1.083,1.0806,1.0768,1.0717,1.0696,1.0645,1.0596,1.0555,1.053,1.0488,1.0462,1.0444,1.0455,1.0461,1.0465,1.0464,1.0446,1.045,1.041,1.041,1.041,0,0,1.1066,1.1015,1.0998,1.0929,1.0888,1.0855,1.0813,1.078,1.0754,1.0691,1.0652,1.0614,1.0554,1.0522,1.0505,1.0491,1.0472,1.0467,1.0471,1.0467,1.0448,1.0452,1.0455,1.0411,1.0411,1.041,0,0,1.1093,1.1052,1.103,1.0991,1.0931,1.0888,1.0883,1.0813,1.0785,1.0745,1.0697,1.0665,1.0597,1.0556,1.0527,1.054,1.0503,1.0529,1.0555,1.0539,1.0542,1.0544,1.0547,1.0549,1.0528,1.0528,1.0528,0,1.1129,1.1078,1.1023,1.0993,1.0963,1.0906,1.0883,1.0848,1.0777,1.0757,1.0743,1.0655,1.0612,1.0569,1.0572,1.0551,1.0542,1.0535,1.0546,1.0548,1.0549,1.0551,1.0552,1.0531,1.0531,1.0531,1.053,0,1.1126,1.1091,1.1081,1.1015,1.0985,1.0958,1.0899,1.0874,1.084,1.0799,1.0759,1.0705,1.0651,1.0639,1.0605,1.0591,1.0584,1.0559,1.0531,1.0557,1.0557,1.0558,1.0536,1.0535,1.0534,1.0533,0,0,1.1189,1.1095,1.1091,1.1061,1.0991,1.0963,1.0934,1.0883,1.0862,1.0816,1.0789,1.0734,1.071,1.0677,1.0638,1.0624,1.0636,1.06,1.0597,1.0606,1.0615,1.0633,1.0634,1.0613,1.0613,1.0613,1.0619,0,1.1203,1.1148,1.1099,1.1062,1.1029,1.0975,1.095,1.0904,1.0866,1.0831,1.0788,1.0749,1.0722,1.0701,1.0685,1.0638,1.0636,1.0637,1.0585,1.0583,1.0598,1.0635,1.0653,1.0662,1.0619,1.0619,1.0619,0,1.1211,1.1168,1.1128,1.1062,1.1046,1.1024,1.0973,1.0942,1.0889,1.0861,1.0825,1.0785,1.0751,1.0731,1.0682,1.0684,1.066,1.0634,1.0633,1.0623,1.0601,1.0624,1.0663,1.0664,1.062,1.062,1.062,0,1.1258,1.1191,1.1158,1.1134,1.1056,1.1042,1.1009,1.0955,1.0928,1.0883,1.0864,1.0817,1.0789,1.0753,1.07,1.0691,1.0657,1.0632,1.0632,1.0633,1.0624,1.0625,1.0658,1.0614,1.0614,1.0614,1.0614,0,1.1277,1.1254,1.1178,1.1158,1.113,1.1074,1.1048,1.1011,1.0964,1.0935,1.0886,1.086,1.0793,1.0759,1.0718,1.0683,1.0672,1.0648,1.0636,1.065,1.0653,1.0631,1.0628,1.0615,1.0614,1.0614,1.0614,0,1.1324,1.1272,1.1233,1.1164,1.1146,1.1128,1.1069,1.1046,1.1006,1.097,1.0958,1.0894,1.085,1.0795,1.0734,1.0707,1.0676,1.066,1.0694,1.0687,1.0688,1.0688,1.0706,1.0705,1.0665,1.0666,1.0666,0,1.1338,1.1319,1.1248,1.1226,1.1194,1.1159,1.113,1.1075,1.1047,1.0987,1.0971,1.0925,1.0884,1.0817,1.0765,1.0718,1.0699,1.0709,1.0691,1.0706,1.0696,1.0697,1.0694,1.0712,1.0713,1.0714,1.0714,0,1.1367,1.1343,1.1304,1.1257,1.1226,1.1186,1.1143,1.1128,1.1063,1.1035,1.0991,1.0959,1.0898,1.0851,1.0798,1.0763,1.0727,1.0721,1.0717,1.073,1.0749,1.0736,1.0703,1.0719,1.0719,1.0719,1.0718,1.0718,1.1396,1.1376,1.1324,1.1283,1.1246,1.1208,1.1183,1.1141,1.1103,1.1049,1.1019,1.0975,1.0923,1.0848,1.0815,1.0779,1.0766,1.0762,1.076,1.0759,1.0763,1.0758,1.0769,1.0769,1.0769,1.0769,1.0769,0,1.142,1.1385,1.1348,1.1291,1.1258,1.123,1.1183,1.1157,1.1119,1.1075,1.1036,1.0985,1.094,1.0885,1.0837,1.0819,1.0801,1.0808,1.0807,1.0799,1.0779,1.0785,1.0823,1.0823,1.0823,1.0823,1.0823,1.0823,1.1429,1.1395,1.1365,1.1311,1.1275,1.1233,1.1208,1.1172,1.1136,1.1081,1.1044,1.101,1.096,1.0908,1.0865,1.085,1.0833,1.0844,1.0824,1.0805,1.0801,1.0796,1.0801,1.0842,1.0842,1.0847,1.0847,1.0847]}]]